Regional Weather Roundup
Issued by NWS

Home | Current Version | Previous Version | Text Only | Print | Product List | Glossary Off
Versions: 1 2 3 4 5 6 7 8 9 10 11 12 13 14 15 16 17 18 19 20 21 22 23 24 25 26 27 28 29 30 31 32 33 34 35 36 37 38 39 40 41 42 43 44 45 46 47 48 49 50

332
ASUS43 KLMK 132302
RWRKY
KENTUCKY REGIONAL WEATHER ROUNDUP
NATIONAL WEATHER SERVICE LOUISVILLE KY
600 PM EST SAT FEB 13 2016

NOTE "FAIR" INDICATES FEW OR NO CLOUDS BELOW 12,000 FEET
WITH NO SIGNIFICANT WEATHER AND/OR OBSTRUCTIONS TO VISIBILITY.

KYZ001>023-026-027-061>063-070>075-140000-
WESTERN AND SOUTH CENTRAL KENTUCKY

CITY           SKY/WX    TMP DP  RH WIND       PRES   REMARKS
PADUCAH        CLOUDY    27   3  35 E6        30.52S WCI  20
HENDERSON      MOCLDY    23   1  39 NE3       30.55S
OWENSBORO      CLOUDY    24   1  36 NW6       30.55S WCI  17
HOPKINSVILLE   MOCLDY    27   3  36 NE6       30.50S WCI  20
BOWLING GREEN  PTCLDY    28   2  32 NW5       30.51S WCI  23
GLASGOW        NOT AVBL
$$

KYZ024-025-028>034-038-045-046-053-140000-
NORTH CENTRAL KENTUCKY

CITY           SKY/WX    TMP DP  RH WIND       PRES   REMARKS
LOUISVILLE/SDF PTCLDY    24  -1  33 NW7       30.52S WCI  16
LOUISVILLE/LOU PTCLDY    25   0  33 N3        30.53R
FORT KNOX      CLEAR     24   0  36 N6        30.48S WCI  16
$$

KYZ035>037-039>044-047>052-055>060-089>105-140000-
NORTHEAST KENTUCKY

CITY           SKY/WX    TMP DP  RH WIND       PRES   REMARKS
LEXINGTON      CLEAR     20   0  41 N8        30.48S WCI  10
COVINGTON      PTCLDY    17   1  49 NW7       30.51R WCI   8
FRANKFORT      CLEAR     21  -1  38 NW7       30.50R WCI  12
$$

KYZ054-064>069-076>088-106>120-140000-
SOUTHEAST KENTUCKY

CITY           SKY/WX    TMP DP  RH WIND       PRES   REMARKS
JACKSON        CLEAR     19   0  43 VRB5      30.44R WCI  12
LONDON         CLEAR     22   1  40 N8        30.45R WCI  12
SOMERSET       NOT AVBL
MIDDLESBORO    NOT AVBL
MONTICELLO     CLEAR     24   9  52 N13       30.49R WCI  12
$$





USA.gov is the U.S. government's official web portal to all federal, state and local government web resources and services.